Regional Weather Roundup
Issued by NWS

Home | Current Version | Previous Version | Text Only | Print | Product List | Glossary On
Versions: 1 2 3 4 5 6 7 8 9 10 11 12 13 14 15 16 17 18 19 20 21 22 23 24 25 26 27 28 29 30 31 32 33 34 35 36 37 38 39 40 41 42 43 44 45 46 47 48 49 50
000
ASUS44 KJAN 201410
RWRMS

MISSISSIPPI HOURLY WEATHER ROUNDUP
NATIONAL WEATHER SERVICE JACKSON MS
800 AM CST FRI JAN 20 2017

NOTE: "FAIR: INDICATES FEW OR NO CLOUDS BELOW 12,000 FEET WITH NO
SIGNIFICANT WEATHER AND/OR OBSTRUCTIONS TO VISIBILITY.

MSZ001>002-007>008-010>013-018>021-025>028-034>036-201500-
NORTHWEST MISSISSIPPI

CITY           SKY/WX    TMP DP  RH WIND       PRES   REMARKS
BATESVILLE     CLOUDY    56  54  92 S6        29.77R
CLARKSDALE     CLOUDY    57  57 100 CALM      29.76R
CLEVELAND      CLOUDY    59  59 100 S10       29.76R
GREENWOOD      CLOUDY    58  54  86 S10       29.79R
GREENVILLE     CLOUDY    59  55  87 S13       29.75R
OXFORD         FAIR      52  52 100 S7        29.78R
TUNICA         PTSUNNY   55  54  94 S9        29.75R
WINONA         CLOUDY    56  56 100 S10G16    29.79R
$$

MSZ003>006-009-014>017-022>024-029>033-037>039-201500-
NORTHEAST MISSISSIPPI

CITY           SKY/WX    TMP DP  RH WIND       PRES   REMARKS
COLUMBUS AFB   NOT AVBL
CORINTH        CLOUDY    57  54  88 S7        29.77S
GOLDN TRIANGLE CLOUDY    59  54  82 S7        29.77R FOG
STARKVILLE     CLOUDY    57  57 100 S6        29.82R
TUPELO         CLOUDY    56  54  93 SE8       29.79R
$$

MSZ040-058-201500-
CENTRAL MISSISSIPPI

CITY           SKY/WX    TMP DP  RH WIND       PRES   REMARKS
JACKSON INTL   CLOUDY    61  59  93 S8        29.81R FOG
JACKSON HAWKNS CLOUDY    60  58  92 S8        29.82R
MADISON        CLOUDY    57  57 100 S7        29.81R
MERIDIAN KEY   CLOUDY    63  62  97 S7        29.84R FOG
MERIDIAN NAS   CLOUDY    63  58  83 S3        29.84R
RAYMOND        CLOUDY    61  59  94 S6        29.81S
VICKSBURG VKS  MOSUNNY   61  59  94 S6        29.80R
$$

MSZ059>079-201500-
SOUTH MISSISSIPPI

CITY           SKY/WX    TMP DP  RH WIND       PRES   REMARKS
BROOKHAVEN     PTSUNNY   63  63 100 S7        29.85R FOG
HATTIESBURG    CLOUDY    63  62  97 S6        29.85R FOG
LAUREL         CLOUDY    62  62 100 S3        29.85R
MCCOMB         FOG       62  61  96 SW6       29.84R VSB 1
NATCHEZ        MOCLDY    61  57  88 S7        29.80F
PINE BELT      CLOUDY    63  59  88 S5        29.87R
$$

MSZ080>082-201500-
COASTAL MISSISSIPPI

CITY           SKY/WX    TMP DP  RH WIND       PRES   REMARKS
BAY ST LOUIS   PTSUNNY   63  61  94 CALM      29.86R FOG
BILOXI         PTSUNNY   66  63  88 SW7       29.85R
PASCAGOULA     CLOUDY    65  63  93 CALM      29.86R
GULFPORT       CLOUDY    66  65  96 SW3       29.85R
$$

LAZ007>009-015>016-023>026-201500-
NORTHEAST LOUISIANA

CITY           SKY/WX    TMP DP  RH WIND       PRES   REMARKS
BASTROP        CLOUDY    58  58  98 S6        29.75S
TALLULAH/VBURG CLOUDY    59  58  96 S6        29.80R
VIDALIA        FAIR      59  59  99 SE6       29.83S FOG
$$



USA.gov is the U.S. government's official web portal to all federal, state and local government web resources and services.